Location: Bay Harbour
(38.2612°N, 75.2555°W)
Time: 00:35:00
(UTC+00:00)

Cosmos 2263 Rocket - Pass Details

Date: 29 October 2020
Orbit: 822 x 850 km, 71.0° (Epoch: 02 December)

Event Time Altitude Azimuth Distance (km) Brightness Sun altitude
Rises 23:44:38 0° 349° (N) 3,419 5.5 -20.2°
Reaches altitude 10° 23:47:36 10° 3° (N) 2,482 4.6 -20.8°
Enters shadow 23:50:24 21° 30° (NNE) 1,844 3.7 -21.3°
